RH
95 96 83 66 58 30 41 53 56 67 75 74 71 70 73 75 80 89 90 85 97 97 91 91 85 86 94 89 98 96 74 80 73
94 92 79 67 59 34 45 50 50 64 72 71 73 74 75 78 81 84 84 78 81 88 91 91 87 85 90 95 91 90 94 92 92
98 94 76 73 64 44 53 59 53 61 69 68 71 76 76 76 74 76 80 84 92 95 97 91 98 98 99 98 96 91 94 93 92
99 92 81 84 76 57 59 63 61 60 66 68 70 71 73 72 72 71 72 80 90 95 97 97 97 98 95 97 99 93 92 89 85
91 86 89 88 78 67 71 69 65 62 62 67 69 70 71 74 73 74 75 87 91 95 96 95 95 93 94 94 97 90 96 93 90
83 83 81 79 73 59 61 68 65 60 58 63 71 70 74 76 75 76 79 89 95 95 96 93 91 91 93 94 94 94 93 95 94
72 77 86 83 74 63 57 64 63 59 55 57 67 70 69 69 74 77 81 90 94 95 96 93 89 88 89 90 91 93 94 94 95
64 63 72 81 77 67 73 74 65 58 52 54 59 66 64 58 67 74 80 83 95 94 96 95 88 87 88 88 88 89 90 90 92
45 45 67 70 63 58 63 71 70 65 54 51 52 58 58 54 57 69 76 79 92 93 96 95 87 86 88 86 86 87 89 89 90
58 56 57 60 57 50 55 64 72 71 63 55 54 50 51 52 53 56 68 74 79 89 95 94 87 84 87 85 85 90 90 90 90
59 64 67 68 68 63 57 54 64 68 71 68 53 49 50 49 52 51 58 67 75 75 90 92 87 84 85 87 86 89 90 89 90
62 62 63 64 67 69 66 60 63 72 77 79 70 53 50 48 47 48 49 55 64 70 82 88 88 85 84 85 86 87 89 90 91
78 68 65 64 65 70 70 66 66 70 75 78 79 73 61 56 49 46 45 47 56 63 71 75 86 86 85 84 85 85 87 88 89
76 76 67 64 66 68 71 70 70 70 72 75 74 77 79 68 56 48 44 43 47 58 63 67 70 77 85 84 83 84 83 84 84
71 75 71 67 69 70 73 73 72 71 69 72 76 73 77 77 59 51 46 43 42 47 58 61 68 69 76 83 82 84 82 80 78
76 74 71 70 72 71 71 75 77 76 74 78 76 73 71 67 61 53 47 44 44 43 50 61 65 67 68 70 81 80 84 79 76
90 86 82 74 79 77 80 78 78 81 82 84 82 87 72 66 66 59 50 46 43 44 46 54 64 68 68 69 68 78 78 80 76
88 92 90 84 84 81 79 87 86 91 86 84 86 88 84 75 60 58 56 54 50 45 47 50 59 68 68 68 67 64 75 77 76
54 67 82 84 85 88 81 84 91 90 95 94 93 87 86 83 85 60 51 50 50 53 50 50 52 55 67 66 64 63 65 74 72
42 47 50 63 82 88 86 82 82 86 93 98 93 89 97 95 88 87 80 66 59 57 54 54 54 55 60 77 73 72 74 82 74
Wind_Speed
12 16 12 8 6 8 10 11 12 13 12 10 8 9 9 9 12 13 11 13 11 11 11 9 8 12 15 9 6 3 5 3 2
14 13 11 8 6 8 10 10 11 12 10 9 7 10 9 10 11 10 8 6 4 4 4 5 4 6 9 9 10 14 10 5 7
12 12 9 7 5 7 8 9 10 11 9 8 7 8 8 9 6 6 5 4 4 4 4 4 3 4 4 6 6 8 10 12 14
10 10 8 6 5 6 7 7 7 8 8 7 6 5 6 6 4 4 2 2 4 3 3 3 3 3 2 2 4 5 5 6 8
11 10 8 6 5 5 6 6 5 6 7 7 7 5 7 7 5 4 2 3 4 4 3 3 3 3 3 4 4 5 4 5 6
12 11 10 9 8 7 7 6 5 5 7 8 7 6 7 8 8 7 5 4 5 4 4 3 3 2 3 4 4 5 6 5 5
11 12 12 11 10 9 9 8 7 7 8 9 10 9 8 9 9 9 8 6 6 5 5 5 5 4 3 3 4 4 5 6 7
13 12 14 14 12 11 11 11 10 9 9 10 11 12 9 8 12 12 11 9 8 8 8 6 5 5 5 5 4 5 5 5 6
13 13 13 15 14 13 14 13 12 11 11 11 13 14 13 11 12 13 14 12 10 9 9 8 7 6 6 6 6 5 5 6 5
14 14 14 15 14 15 16 16 16 15 14 15 15 15 16 14 14 15 16 16 14 11 10 10 9 8 8 7 7 7 6 6 6
18 17 18 17 16 16 17 18 18 18 18 18 19 19 19 18 17 17 18 18 17 15 12 12 12 11 10 9 8 8 8 7 7
20 20 21 21 19 19 19 19 20 21 21 21 20 22 21 21 21 20 19 20 21 20 16 14 14 13 13 12 11 10 10 9 8
24 25 25 24 24 23 22 22 23 25 25 25 25 25 25 24 24 24 23 23 24 23 21 18 16 16 15 15 14 13 12 11 10
28 29 28 26 27 28 28 28 27 28 29 30 29 29 30 30 27 28 27 26 26 27 25 23 21 20 19 18 17 16 15 15 14
30 32 31 30 28 29 31 30 31 31 33 32 33 32 32 32 32 32 29 29 29 30 29 27 26 24 24 21 19 18 17 15 15
26 29 30 30 29 29 28 30 30 31 30 27 26 29 31 31 34 35 33 33 33 33 33 32 30 28 27 27 23 21 20 18 16
24 25 26 24 24 25 28 32 30 28 27 13 5 4 13 25 33 37 37 38 37 36 35 35 33 32 30 30 29 26 23 21 19
19 21 23 23 22 24 25 28 29 25 23 24 15 2 4 3 11 22 31 39 40 39 36 34 34 35 34 32 33 32 30 24 22
13 16 20 22 23 22 22 22 25 25 21 18 22 28 16 3 6 9 15 19 24 32 35 35 34 35 37 38 37 34 32 27 24
15 14 15 18 21 22 21 20 20 20 20 20 18 20 22 20 5 10 5 12 15 17 22 30 33 35 36 39 39 35 30 27 26
Wind_Direction
147 155 153 136 111 115 120 121 130 135 133 123 115 121 117 112 108 109 98 94 96 79 77 72 60 51 96 108 81 61 123 110 97
157 162 157 148 123 127 129 130 135 142 141 130 118 133 128 123 122 123 114 101 92 94 91 76 81 84 94 94 81 73 104 84 80
160 160 163 156 138 142 143 138 144 154 158 149 136 145 148 143 140 137 147 160 118 111 109 115 101 108 94 84 94 92 92 87 91
162 166 169 166 164 162 163 157 158 165 176 171 162 165 174 172 171 165 163 131 133 120 101 88 91 99 123 139 120 125 124 135 128
184 183 185 190 194 187 185 183 185 190 194 197 195 208 203 201 201 202 199 151 155 147 144 117 98 90 96 111 129 147 148 169 170
202 204 208 210 211 205 202 205 212 219 218 214 212 205 200 216 223 223 218 201 186 177 171 150 139 126 116 114 117 134 143 150 152
212 219 219 218 218 214 209 213 223 236 236 228 225 216 224 238 234 234 225 223 213 210 201 198 177 161 144 132 132 136 144 144 137
221 225 220 220 222 221 217 224 230 237 240 233 230 234 244 256 242 238 231 234 224 222 214 206 195 183 174 165 161 155 152 147 141
223 222 217 224 230 231 230 234 238 244 246 238 235 238 244 255 248 240 234 243 234 231 222 217 207 206 196 188 183 176 173 163 158
227 227 228 234 238 241 241 244 244 246 248 244 243 245 250 256 248 251 244 243 250 239 231 224 219 214 211 207 199 195 189 183 171
235 238 238 240 244 250 251 252 253 255 254 254 251 255 254 262 258 257 248 248 249 255 236 230 226 224 218 217 213 209 204 196 187
240 245 248 250 251 252 252 254 256 257 255 257 255 255 256 262 264 262 252 251 249 250 246 234 229 227 224 221 217 214 212 208 201
246 248 251 251 251 253 253 254 255 256 257 259 259 259 258 258 257 259 259 253 250 249 250 247 235 230 230 228 225 218 211 213 208
250 252 255 256 253 252 253 255 253 257 261 262 265 261 258 258 259 259 260 258 253 249 250 251 250 240 229 230 228 226 219 208 207
253 252 254 258 259 258 255 254 259 259 263 267 267 268 263 255 254 256 259 260 257 251 248 247 246 244 238 231 232 232 229 227 218
256 255 255 256 260 264 264 262 260 261 260 263 270 270 265 258 255 254 255 257 257 254 250 246 245 245 242 237 230 231 231 229 230
262 259 260 267 268 268 265 260 260 264 265 249 260 291 281 266 262 257 254 255 256 256 254 250 247 246 246 242 235 227 229 228 226
267 266 265 265 268 271 275 267 261 253 259 255 237 280 236 324 256 260 259 258 257 257 256 254 251 249 247 246 242 237 226 226 225
274 271 266 265 268 272 275 277 266 261 250 251 246 245 257 251 294 261 268 270 266 262 259 259 258 254 249 246 243 240 232 229 226
272 276 274 269 266 267 270 270 271 266 262 255 253 264 255 257 243 286 280 285 290 283 271 268 266 264 259 252 250 241 237 227 230